Regional Weather Roundup
Issued by NWS

Home | Current Version | Previous Version | Text Only | Print | Product List | Glossary On
Versions: 1 2 3 4 5 6 7 8 9 10 11 12 13 14 15 16 17 18 19 20 21 22 23 24 25 26 27 28 29 30 31 32 33 34 35 36 37 38 39 40 41 42 43 44 45 46 47 48 49 50
318
ASUS42 KTBW 011017
RWRFL
FLORIDA REGIONAL WEATHER ROUNDUP
NATIONAL WEATHER SERVICE TAMPA BAY RUSKIN FL
600 AM EDT SUN MAY 01 2016

NOTE: "FAIR" INDICATES FEW OR NO CLOUDS BELOW 12,000 FEET WITH NO
SIGNIFICANT WEATHER AND/OR OBSTRUCTIONS TO VISIBILITY.

FLZ001>010-012>015-112-114-115-011100-
PANHANDLE FLORIDA

CITY           SKY/WX    TMP DP  RH WIND       PRES   REMARKS
PENSACOLA      CLOUDY    75  73  93 SE9       29.92S
MILTON NAS     LGT RAIN  72  72 100 SE5       29.93  FOG
CRESTVIEW      CLOUDY    74  72  93 S3        29.96R
DUKE FIELD     FOG       70  68  94 SE2       29.93S VSB 1/4
VALPARAISO     PTCLDY    73  71  95 SE5       29.94R
MARY ESTHER    CLEAR     73  72  98 SE5       29.92S
PANAMA CITY    CLOUDY    73  72  96 E7        29.94S FOG
TYNDALL AFB    CLOUDY    73  72  94 E8        29.95R
APALACHICOLA   MOCLDY    75  73  93 SE9       29.96R

STATION/POSITION SKY/WX   TEMP    WIND        PRES    WAVE   SWELL
                          AIR SEA DIR/SP/G            HT/PER HT/PER
                          (F)     (DEG/KT/KT) (MB)    (FT/S) (FT/S)
30.1N   87.6W              75 74  130/  8/ 10 1012.1R   4/ 7   3/ 7
29.2N   88.2W              76 74  150/ 12/ 14 1011.8F
28.8N   86.0W              78 78  160/ 14/ 16 1013.1    4/ 7   2/ 7
PANAMA CITY BEAC           76 77  140/ 11/ 14 1014.0R
TOWER C                    74     140/ 12/ 13 1015.3R
28.5N   84.5W              75 75  130/ 12/ 14 1014.0R   3/ 7   2/ 7

$$
FLZ011-016>038-118-127-128-134-139-239-011100-
NORTH FLORIDA

CITY           SKY/WX    TMP DP  RH WIND       PRES   REMARKS
MARIANNA       CLOUDY    72  72 100 CALM      29.96R
TALLAHASSEE    CLOUDY    73  70  90 SE5       29.97S
PERRY          MOCLDY    72  69  91 SE8       29.98S
LIVE OAK       CLOUDY    73  72  94 SE6       30.00S
CROSS CITY       N/A     72  67  84 SE5       29.98S
LAKE CITY      FAIR      70  70 100 SE3       30.01R
GAINESVILLE    CLOUDY    70  68  93 SE6       30.01R
WILLISTON      FAIR      70  70 100 SE3       30.01R
PALATKA        FAIR      68  63  83 CALM      30.02R HAZE
MAYPORT NAS    PTCLDY    70  70 100 S6        30.02R
JACKSONVILLE   MOCLDY    71  69  93 S7        30.01R
JAX NAS        PTCLDY    75  69  81 S9        30.02R
JAX CECIL      MOCLDY    72  70  94 SE6       30.02R
FERNANDINA BEA CLOUDY    75  72  88 S7        30.00S
ST AUGUSTINE   PTCLDY    73  70  90 S6        30.02S
PALM COAST     CLEAR     70  70 100 SE3       30.01S

STATION/POSITION SKY/WX   TEMP    WIND        PRES    WAVE   SWELL
                          AIR SEA DIR/SP/G            HT/PER HT/PER
                          (F)     (DEG/KT/KT) (MB)    (FT/S) (FT/S)
SHELL POINT                78     150/ 12/ 13 1013.4
KEATON BEACH               72     100/  6/  7 1014.7R
CEDAR KEY                  76     150/ 17/ 19 1015.8R
FERNANDINA                 73 72  140/  5/  9 1016.1F
30.7N   81.3W                 74                N/A     2/10
MAYPORT                    73 72  160/  3/  5 1016.3F
ST AUGUSTINE               71 70  170/  4/  4 1017.1S

$$
FLZ040-043>046-052-053-057-058-063-144-011100-
INTERIOR CENTRAL FLORIDA

CITY           SKY/WX    TMP DP  RH WIND       PRES   REMARKS
OCALA          MOCLDY    70  64  83 CALM      30.01R
THE VILLAGES     N/A     72  70  94 E5        29.91S
LEESBURG       MOCLDY    73  68  84 SE12      30.01F
SANFORD        CLEAR     70  67  90 SE5       30.01S
ORLANDO EXEC   CLEAR     71  67  87 E3        30.01S
ORLANDO INTL   PTCLDY    70  67  90 E5        30.01S
WINTER HAVEN   CLEAR     70  67  90 E9        30.01F
LAKELAND       CLEAR     68  66  94 SE6       30.00F
BARTOW         FAIR      64 N/A N/A CALM      30.01F
OKEECHOBEE     PTCLDY    63  61  94 NE3       30.01S

$$
FLZ041-047-054-059-064-141-147-011100-
EAST CENTRAL FLORIDA

CITY           SKY/WX    TMP DP  RH WIND       PRES   REMARKS
DAYTONA BEACH  PTCLDY    72  69  90 CALM      30.01F
DELAND           N/A     68  66  94 CALM      30.02F
JFK SPACE CTR  PTCLDY    74  67  81 SE6       30.01S
CAPE CANAVERAL CLEAR     74  66  75 SE12      30.00S
PATRICK AFB    PTCLDY    76  67  74 SE16      30.01R
MELBOURNE      PTCLDY    76  66  71 SE8       30.01R
VERO BEACH     CLEAR     74  65  73 SE10      30.01R
FT PIERCE      PTCLDY    74  66  76 SE10      30.00R
STUART         PTCLDY    77  68  73 SE9       30.02R

STATION/POSITION SKY/WX   TEMP    WIND        PRES    WAVE   SWELL
                          AIR SEA DIR/SP/G            HT/PER HT/PER
                          (F)     (DEG/KT/KT) (MB)    (FT/S) (FT/S)
28.5N   80.2W              77 77  130/ 16/ 17 1016.3R
28.9N   78.5W              77 77  120/ 12/ 14 1016.5F
TRIDENT PIER               76 79  120/  8/ 12 1016.3R
28.4N   80.5W                 77                N/A     3/ 4
27.5N   80.2W                 77                N/A     3/ 5

$$
FLZ050-056-061-142-242-148-248-149-249-151-251-155-255-
160-260-011100-
WEST CENTRAL FLORIDA

CITY           SKY/WX    TMP DP  RH WIND       PRES   REMARKS
CRYSTAL RIVER  FAIR      66  64  94 CALM      30.00R
INVERNESS      FAIR      68  66  94 CALM      30.01R
BROOKSVILLE    PTCLDY    67  65  93 E5        30.00S
ZEPHYRHILLS    FAIR      58  56  92 CALM      30.01R
CLEARWATER AIR FAIR      72  68  88 SE9       29.98S
ST PETE CLEARW PTCLDY    73  68  84 SE10      29.98S
TAMPA INTL     MOCLDY    73  67  81 SE6       29.99S
TAMPA EXEC     CLEAR     68  64  88 CALM      30.00S
PLANT CITY     PTCLDY    68  68 100 SE3       30.02S
MACDILL AFB    PTCLDY    72  71  98 SE9       29.98S
PETER O KNIGHT CLEAR     73  70  88 SE7       29.99S
ST PETERSBURG  PTCLDY    74  69  85 SE15      29.97S
SARASOTA       PTCLDY    70  66  87 SE9       29.97S
VENICE         NOT AVBL

STATION/POSITION SKY/WX   TEMP    WIND        PRES    WAVE   SWELL
                          AIR SEA DIR/SP/G            HT/PER HT/PER
                          (F)     (DEG/KT/KT) (MB)    (FT/S) (FT/S)
27.3N   84.2W                 79                N/A     3/ 6
CLEARWATER BEACH           74 80  120/  9/ 12 1015.1S
MIDDLE TAMPA BAY NOT AVBL
VENICE                     70 81   90/  8/  9 1014.9F

$$
FLZ066-069-070-075>078-162-262-165-265-011100-
SOUTHWEST FLORIDA AND KEYS

CITY           SKY/WX    TMP DP  RH WIND       PRES   REMARKS
PUNTA GORDA    CLEAR     63  63 100 E6        30.01S
FT MYERS       CLEAR     69  67  93 E6        29.98S
SOUTHWEST INTL CLEAR     69  65  86 E9        29.98F
NAPLES         CLEAR     70  68  93 E7        29.97S
MARCO ISLAND   MOCLDY    70  63  78 E7        29.97F
MARATHON       PTCLDY    78  70  76 E9        29.95F
KEY WEST NAS   CLOUDY    78  69  73 E13       29.95F
KEY WEST INTL  CLOUDY    78  71  79 E16       29.96S

STATION/POSITION SKY/WX   TEMP    WIND        PRES    WAVE   SWELL
                          AIR SEA DIR/SP/G            HT/PER HT/PER
                          (F)     (DEG/KT/KT) (MB)    (FT/S) (FT/S)
NAPLES                        80              1015.1R
26.0N   85.6W              78 80  120/ 16/ 19 1013.3R   5/ 7   2/11
DRY TORTUGAS               78     120/ 14/ 15 1013.9R
SAND KEY                   79     130/ 17/ 19 1014.5F
LONG KEY                   79 80  120/ 15/ 17 1014.9S

$$
FLZ067-068-071>074-168-172>174-011100-
SOUTHEAST FLORIDA

CITY           SKY/WX    TMP DP  RH WIND       PRES   REMARKS
W PALM BEACH   PTCLDY    77  67  71 E14       30.00S
FT LAUDER-EXEC PTCLDY    76  66  71 E12       29.99S
FT LAUDERDALE  PTCLDY    77  68  73 E16       29.98S
POMPANO BEACH  CLEAR     74  68  81 E12       29.99S
PEMBROKE PINES CLEAR     76  68  76 E10       30.00S
OPA LOCKA      CLEAR     76  68  76 E8        29.99S
MIAMI          MOCLDY    77  69  76 E12       29.99S
WEST KENDALL   CLOUDY    76  68  76 E13G20    29.98S
HOMESTEAD      PTCLDY    77  69  76 E12       29.98S

STATION/POSITION SKY/WX   TEMP    WIND        PRES    WAVE   SWELL
                          AIR SEA DIR/SP/G            HT/PER HT/PER
                          (F)     (DEG/KT/KT) (MB)    (FT/S) (FT/S)
PORT EVERGLADES            77     100/  6/ 11 1015.4F
VIRGINIA KEY               78 81   90/ 12/ 15 1015.6R
LAKE WORTH                 77 79  110/ 15/ 17 1015.5F
SETTLEMENT POINT           76     100/ 15/ 18 1016.7F

$$





USA.gov is the U.S. government's official web portal to all federal, state and local government web resources and services.